Time,TemperatureF,DewpointF,PressureIn,WindDirection,WindDirectionDegrees,WindSpeedMPH,WindSpeedGustMPH,Humidity,HourlyPrecipIn,Conditions,Clouds,dailyrainin,SoftwareType,DateUTC
2013-01-17 00:02:00,33.4,28.5,29.99,NW,308,0.0,0.0,82,0.00,,---,0.00,VWS V14.00,2013-01-17 08:02:00,
2013-01-17 00:07:00,33.4,28.5,29.99,NW,308,0.0,0.0,82,0.00,,---,0.00,VWS V14.00,2013-01-17 08:07:00,
2013-01-17 00:12:00,33.5,28.6,29.99,NW,307,0.0,0.0,82,0.00,,---,0.00,VWS V14.00,2013-01-17 08:12:00,
2013-01-17 00:17:00,33.5,28.6,29.99,NW,308,0.0,0.0,82,0.00,,---,0.00,VWS V14.00,2013-01-17 08:17:00,
2013-01-17 00:22:00,33.5,28.6,29.99,NW,307,0.0,0.0,82,0.00,,---,0.00,VWS V14.00,2013-01-17 08:22:00,
2013-01-17 00:27:00,33.7,28.8,29.99,NW,307,0.0,0.0,82,0.00,,---,0.00,VWS V14.00,2013-01-17 08:27:00,
2013-01-17 00:32:00,33.7,28.8,29.99,NW,307,0.0,0.0,82,0.00,,---,0.00,VWS V14.00,2013-01-17 08:32:00,
2013-01-17 00:37:00,33.8,28.9,29.98,NW,307,0.0,0.0,82,0.00,,---,0.00,VWS V14.00,2013-01-17 08:37:00,
2013-01-17 00:42:00,33.7,28.8,29.98,NW,308,0.0,0.0,82,0.00,,---,0.00,VWS V14.00,2013-01-17 08:42:00,
2013-01-17 00:47:00,33.7,28.8,29.98,NW,307,0.0,0.0,82,0.00,,---,0.00,VWS V14.00,2013-01-17 08:47:00,
2013-01-17 00:52:00,33.7,28.8,29.98,NW,307,0.0,0.0,82,0.00,,---,0.00,VWS V14.00,2013-01-17 08:52:00,
2013-01-17 00:57:00,33.8,28.9,29.98,NW,307,0.0,0.0,82,0.00,,---,0.00,VWS V14.00,2013-01-17 08:57:00,
2013-01-17 01:02:00,33.8,28.6,29.98,NW,307,0.0,0.0,81,0.00,,---,0.00,VWS V14.00,2013-01-17 09:02:00,
2013-01-17 01:07:00,33.7,28.5,29.98,NW,307,0.0,0.0,81,0.00,,---,0.00,VWS V14.00,2013-01-17 09:07:00,
2013-01-17 01:12:00,33.7,28.5,29.98,NW,307,0.0,0.0,81,0.00,,---,0.00,VWS V14.00,2013-01-17 09:12:00,
2013-01-17 01:17:00,33.7,28.5,29.98,NW,307,0.0,0.0,81,0.00,,---,0.00,VWS V14.00,2013-01-17 09:17:00,
2013-01-17 01:22:00,33.5,28.3,29.98,NW,307,0.0,0.0,81,0.00,,---,0.00,VWS V14.00,2013-01-17 09:22:00,
2013-01-17 01:27:00,33.4,28.2,29.98,NW,307,0.0,0.0,81,0.00,,---,0.00,VWS V14.00,2013-01-17 09:27:00,
2013-01-17 01:32:00,33.2,28.0,29.98,NW,308,0.0,0.0,81,0.00,,---,0.00,VWS V14.00,2013-01-17 09:32:00,
2013-01-17 01:37:00,33.1,27.6,29.98,NW,307,0.0,0.0,80,0.00,,---,0.00,VWS V14.00,2013-01-17 09:37:00,
2013-01-17 01:42:00,32.9,27.7,29.98,NW,307,0.0,0.0,81,0.00,,---,0.00,VWS V14.00,2013-01-17 09:42:00,
2013-01-17 01:47:00,32.7,27.5,29.98,NW,308,0.0,0.0,81,0.00,,---,0.00,VWS V14.00,2013-01-17 09:47:00,
2013-01-17 01:52:00,32.7,27.5,29.98,NW,308,0.0,0.0,81,0.00,,---,0.00,VWS V14.00,2013-01-17 09:52:00,
2013-01-17 01:57:00,32.7,27.8,29.98,NW,308,0.0,0.0,82,0.00,,---,0.00,VWS V14.00,2013-01-17 09:57:00,
2013-01-17 02:02:00,32.8,27.6,29.98,NW,307,0.0,0.0,81,0.00,,---,0.00,VWS V14.00,2013-01-17 10:02:00,
2013-01-17 02:07:00,32.8,27.6,29.98,NW,307,0.0,0.0,81,0.00,,---,0.00,VWS V14.00,2013-01-17 10:07:00,
2013-01-17 02:12:00,32.8,27.9,29.98,NW,308,0.0,0.0,82,0.00,,---,0.00,VWS V14.00,2013-01-17 10:12:00,
2013-01-17 02:17:00,32.8,27.6,29.98,NW,307,0.0,0.0,81,0.00,,---,0.00,VWS V14.00,2013-01-17 10:17:00,
2013-01-17 02:22:00,32.8,27.6,29.97,NW,307,0.0,0.0,81,0.00,,---,0.00,VWS V14.00,2013-01-17 10:22:00,
2013-01-17 02:27:00,32.7,27.5,29.97,NW,308,0.0,0.0,81,0.00,,---,0.00,VWS V14.00,2013-01-17 10:27:00,
2013-01-17 02:32:00,32.4,27.2,29.97,NW,308,0.0,0.0,81,0.00,,---,0.00,VWS V14.00,2013-01-17 10:32:00,
2013-01-17 02:37:00,32.2,27.0,29.97,NW,307,0.0,0.0,81,0.00,,---,0.00,VWS V14.00,2013-01-17 10:37:00,
2013-01-17 02:42:00,32.1,26.9,29.97,NW,307,0.0,0.0,81,0.00,,---,0.00,VWS V14.00,2013-01-17 10:42:00,
2013-01-17 02:47:00,32.1,26.9,29.97,NW,308,0.0,0.0,81,0.00,,---,0.00,VWS V14.00,2013-01-17 10:47:00,
2013-01-17 02:52:00,31.9,26.7,29.97,NW,308,0.0,0.0,81,0.00,,---,0.00,VWS V14.00,2013-01-17 10:52:00,
2013-01-17 02:57:00,31.6,26.5,29.97,NW,307,0.0,0.0,81,0.00,,---,0.00,VWS V14.00,2013-01-17 10:57:00,
2013-01-17 03:02:00,31.5,26.6,29.97,NW,307,0.0,0.0,82,0.00,,---,0.00,VWS V14.00,2013-01-17 11:02:00,
2013-01-17 03:07:00,31.3,26.5,29.97,NW,307,0.0,0.0,82,0.00,,---,0.00,VWS V14.00,2013-01-17 11:07:00,
2013-01-17 03:12:00,31.5,26.9,29.97,NW,307,0.0,0.0,83,0.00,,---,0.00,VWS V14.00,2013-01-17 11:12:00,
2013-01-17 03:17:00,31.3,26.5,29.97,NW,308,0.0,0.0,82,0.00,,---,0.00,VWS V14.00,2013-01-17 11:17:00,
2013-01-17 03:22:00,31.3,26.5,29.97,NW,307,0.0,0.0,82,0.00,,---,0.00,VWS V14.00,2013-01-17 11:22:00,
2013-01-17 03:27:00,31.2,26.4,29.97,NW,308,0.0,0.0,82,0.00,,---,0.00,VWS V14.00,2013-01-17 11:27:00,
2013-01-17 03:32:00,30.9,26.1,29.97,NW,307,0.0,0.0,82,0.00,,---,0.00,VWS V14.00,2013-01-17 11:32:00,
2013-01-17 03:37:00,30.7,25.9,29.96,NW,307,0.0,0.0,82,0.00,,---,0.00,VWS V14.00,2013-01-17 11:37:00,
2013-01-17 03:42:00,30.6,26.1,29.96,NW,307,0.0,0.0,83,0.00,,---,0.00,VWS V14.00,2013-01-17 11:42:00,
2013-01-17 03:46:00,30.6,26.1,29.96,NW,307,0.0,0.0,83,0.00,,---,0.00,VWS V14.00,2013-01-17 11:46:00,
2013-01-17 03:51:00,30.4,25.9,29.96,NW,308,0.0,0.0,83,0.00,,---,0.00,VWS V14.00,2013-01-17 11:51:00,
2013-01-17 03:56:00,30.4,25.9,29.96,NW,307,0.0,0.0,83,0.00,,---,0.00,VWS V14.00,2013-01-17 11:56:00,
2013-01-17 04:02:00,30.3,25.8,29.96,NW,307,0.0,0.0,83,0.00,,---,0.00,VWS V14.00,2013-01-17 12:02:00,
2013-01-17 04:07:00,30.1,25.6,29.96,NW,307,0.0,0.0,83,0.00,,---,0.00,VWS V14.00,2013-01-17 12:07:00,
2013-01-17 04:12:00,30.0,25.5,29.96,NW,307,0.0,0.0,83,0.00,,---,0.00,VWS V14.00,2013-01-17 12:12:00,
2013-01-17 04:17:00,29.8,25.3,29.96,NW,307,0.0,0.0,83,0.00,,---,0.00,VWS V14.00,2013-01-17 12:17:00,
2013-01-17 04:22:00,29.7,25.2,29.96,NW,308,0.0,0.0,83,0.00,,---,0.00,VWS V14.00,2013-01-17 12:22:00,
2013-01-17 04:27:00,29.5,25.3,29.96,NW,308,0.0,0.0,84,0.00,,---,0.00,VWS V14.00,2013-01-17 12:27:00,
2013-01-17 04:32:00,29.4,25.2,29.96,NW,308,0.0,0.0,84,0.00,,---,0.00,VWS V14.00,2013-01-17 12:32:00,
2013-01-17 04:37:00,29.4,25.5,29.96,NW,307,0.0,0.0,85,0.00,,---,0.00,VWS V14.00,2013-01-17 12:37:00,
2013-01-17 04:41:00,29.3,25.4,29.96,NW,308,0.0,0.0,85,0.00,,---,0.00,VWS V14.00,2013-01-17 12:41:00,
2013-01-17 04:46:00,29.1,25.2,29.96,NW,307,0.0,0.0,85,0.00,,---,0.00,VWS V14.00,2013-01-17 12:46:00,
2013-01-17 04:51:00,29.0,25.1,29.96,NW,307,0.0,0.0,85,0.00,,---,0.00,VWS V14.00,2013-01-17 12:51:00,
2013-01-17 04:56:00,29.0,25.1,29.96,NW,307,0.0,0.0,85,0.00,,---,0.00,VWS V14.00,2013-01-17 12:56:00,
2013-01-17 05:01:00,29.0,25.1,29.96,NW,307,0.0,0.0,85,0.00,,---,0.00,VWS V14.00,2013-01-17 13:01:00,
2013-01-17 05:06:00,29.0,25.4,29.96,NW,307,0.0,0.0,86,0.00,,---,0.00,VWS V14.00,2013-01-17 13:06:00,
2013-01-17 05:11:00,28.8,25.1,29.96,NW,308,0.0,0.0,86,0.00,,---,0.00,VWS V14.00,2013-01-17 13:11:00,
2013-01-17 05:16:00,28.8,25.1,29.96,NW,307,0.0,0.0,86,0.00,,---,0.00,VWS V14.00,2013-01-17 13:16:00,
2013-01-17 05:21:00,28.8,25.1,29.96,NW,307,0.0,0.0,86,0.00,,---,0.00,VWS V14.00,2013-01-17 13:21:00,
2013-01-17 05:26:00,28.8,25.1,29.96,NW,308,0.0,0.0,86,0.00,,---,0.00,VWS V14.00,2013-01-17 13:26:00,
2013-01-17 05:31:00,28.8,25.1,29.96,NW,307,0.0,0.0,86,0.00,,---,0.00,VWS V14.00,2013-01-17 13:31:00,
2013-01-17 05:36:00,28.7,25.0,29.96,NW,308,0.0,0.0,86,0.00,,---,0.00,VWS V14.00,2013-01-17 13:36:00,
2013-01-17 05:41:00,28.5,24.9,29.96,NW,308,0.0,0.0,86,0.00,,---,0.00,VWS V14.00,2013-01-17 13:41:00,
2013-01-17 05:46:00,28.5,24.9,29.96,NW,307,0.0,0.0,86,0.00,,---,0.00,VWS V14.00,2013-01-17 13:46:00,
2013-01-17 05:51:00,28.5,24.9,29.96,NW,307,0.0,0.0,86,0.00,,---,0.00,VWS V14.00,2013-01-17 13:51:00,
2013-01-17 05:56:00,28.5,24.9,29.96,NW,308,0.0,0.0,86,0.00,,---,0.00,VWS V14.00,2013-01-17 13:56:00,
2013-01-17 06:01:00,28.5,24.9,29.96,NW,307,0.0,0.0,86,0.00,,---,0.00,VWS V14.00,2013-01-17 14:01:00,
2013-01-17 06:06:00,28.4,24.8,29.95,NW,308,0.0,0.0,86,0.00,,---,0.00,VWS V14.00,2013-01-17 14:06:00,
2013-01-17 06:11:00,28.4,24.8,29.95,NW,308,0.0,0.0,86,0.00,,---,0.00,VWS V14.00,2013-01-17 14:11:00,
2013-01-17 06:16:00,28.2,24.6,29.95,NW,307,0.0,0.0,86,0.00,,---,0.00,VWS V14.00,2013-01-17 14:16:00,
2013-01-17 06:21:00,28.2,24.6,29.96,NW,307,0.0,0.0,86,0.00,,---,0.00,VWS V14.00,2013-01-17 14:21:00,
2013-01-17 06:26:00,28.2,24.6,29.96,NW,307,0.0,0.0,86,0.00,,---,0.00,VWS V14.00,2013-01-17 14:26:00,
2013-01-17 06:31:00,28.2,24.6,29.96,NW,307,0.0,0.0,86,0.00,,---,0.00,VWS V14.00,2013-01-17 14:31:00,
2013-01-17 06:36:00,28.2,24.8,29.96,NW,308,0.0,0.0,87,0.00,,---,0.00,VWS V14.00,2013-01-17 14:36:00,
2013-01-17 06:41:00,28.2,24.8,29.96,NW,308,0.0,0.0,87,0.00,,---,0.00,VWS V14.00,2013-01-17 14:41:00,
2013-01-17 06:46:00,28.2,24.8,29.96,NW,307,0.0,0.0,87,0.00,,---,0.00,VWS V14.00,2013-01-17 14:46:00,
2013-01-17 06:51:00,28.2,24.8,29.96,NW,308,0.0,0.0,87,0.00,,---,0.00,VWS V14.00,2013-01-17 14:51:00,
2013-01-17 06:56:00,28.2,24.8,29.96,NW,308,0.0,0.0,87,0.00,,---,0.00,VWS V14.00,2013-01-17 14:56:00,
2013-01-17 07:01:00,28.2,24.8,29.96,NW,308,0.0,0.0,87,0.00,,---,0.00,VWS V14.00,2013-01-17 15:01:00,
2013-01-17 07:06:00,28.2,24.8,29.96,NW,307,0.0,0.0,87,0.00,,---,0.00,VWS V14.00,2013-01-17 15:06:00,
2013-01-17 07:11:00,28.1,24.7,29.96,NW,308,0.0,0.0,87,0.00,,---,0.00,VWS V14.00,2013-01-17 15:11:00,
2013-01-17 07:16:00,27.9,24.5,29.96,NW,307,0.0,0.0,87,0.00,,---,0.00,VWS V14.00,2013-01-17 15:16:00,
2013-01-17 07:21:00,28.1,24.7,29.96,NW,307,0.0,0.0,87,0.00,,---,0.00,VWS V14.00,2013-01-17 15:21:00,
2013-01-17 07:26:00,28.2,24.8,29.96,NW,308,0.0,0.0,87,0.00,,---,0.00,VWS V14.00,2013-01-17 15:26:00,
2013-01-17 07:31:00,28.1,24.7,29.96,NW,307,0.0,0.0,87,0.00,,---,0.00,VWS V14.00,2013-01-17 15:31:00,
2013-01-17 07:36:00,28.1,24.7,29.97,NW,308,0.0,0.0,87,0.00,,---,0.00,VWS V14.00,2013-01-17 15:36:00,
2013-01-17 07:41:00,28.1,24.7,29.97,NW,307,0.0,0.0,87,0.00,,---,0.00,VWS V14.00,2013-01-17 15:41:00,
2013-01-17 07:46:00,28.2,25.1,29.97,NW,308,0.0,0.0,88,0.00,,---,0.00,VWS V14.00,2013-01-17 15:46:00,
2013-01-17 07:51:00,28.2,25.1,29.97,NW,308,0.0,0.0,88,0.00,,---,0.00,VWS V14.00,2013-01-17 15:51:00,
2013-01-17 07:56:00,28.4,25.3,29.97,NW,307,0.0,0.0,88,0.00,,---,0.00,VWS V14.00,2013-01-17 15:56:00,
2013-01-17 08:01:00,28.5,25.1,29.97,NW,307,0.0,0.0,87,0.00,,---,0.00,VWS V14.00,2013-01-17 16:01:00,
2013-01-17 08:06:00,28.7,25.3,29.98,NW,307,0.0,0.0,87,0.00,,---,0.00,VWS V14.00,2013-01-17 16:06:00,
2013-01-17 08:11:00,28.8,25.7,29.98,NW,307,0.0,0.0,88,0.00,,---,0.00,VWS V14.00,2013-01-17 16:11:00,
2013-01-17 08:16:00,29.1,26.0,29.98,NW,307,0.0,0.0,88,0.00,,---,0.00,VWS V14.00,2013-01-17 16:16:00,
2013-01-17 08:21:00,29.1,26.0,29.98,NW,308,0.0,0.0,88,0.00,,---,0.00,VWS V14.00,2013-01-17 16:21:00,
2013-01-17 08:26:00,29.4,26.3,29.98,NW,308,0.0,0.0,88,0.00,,---,0.00,VWS V14.00,2013-01-17 16:26:00,
2013-01-17 08:31:00,30.1,27.0,29.98,NW,307,0.0,0.0,88,0.00,,---,0.00,VWS V14.00,2013-01-17 16:31:00,
2013-01-17 08:36:00,30.6,27.5,29.99,NW,307,0.0,0.0,88,0.00,,---,0.00,VWS V14.00,2013-01-17 16:36:00,
2013-01-17 08:41:00,31.2,27.8,29.99,NW,307,0.0,0.0,87,0.00,,---,0.00,VWS V14.00,2013-01-17 16:41:00,
2013-01-17 08:46:00,32.2,28.8,29.99,NW,307,0.0,0.0,87,0.00,,---,0.00,VWS V14.00,2013-01-17 16:46:00,
2013-01-17 08:51:00,34.0,30.0,29.99,NW,307,0.0,0.0,85,0.00,,---,0.00,VWS V14.00,2013-01-17 16:51:00,
2013-01-17 08:56:00,35.9,30.6,29.99,NW,307,0.0,0.0,81,0.00,,---,0.00,VWS V14.00,2013-01-17 16:56:00,
2013-01-17 09:01:00,37.2,31.3,29.99,NW,307,0.0,0.0,79,0.00,,---,0.00,VWS V14.00,2013-01-17 17:01:00,
2013-01-17 09:06:00,38.5,31.3,29.99,NW,307,0.0,0.0,75,0.00,,---,0.00,VWS V14.00,2013-01-17 17:06:00,
2013-01-17 09:11:00,39.8,31.9,29.99,NW,308,0.0,0.0,73,0.00,,---,0.00,VWS V14.00,2013-01-17 17:11:00,
2013-01-17 09:16:00,41.1,32.4,29.99,NW,307,0.0,0.0,71,0.00,,---,0.00,VWS V14.00,2013-01-17 17:16:00,
2013-01-17 09:21:00,41.9,32.1,29.99,NW,308,0.0,0.0,68,0.00,,---,0.00,VWS V14.00,2013-01-17 17:21:00,
2013-01-17 09:26:00,42.5,32.7,29.99,NW,307,0.0,0.0,68,0.00,,---,0.00,VWS V14.00,2013-01-17 17:26:00,
2013-01-17 09:31:00,44.2,32.4,29.99,NW,307,0.0,0.0,63,0.00,,---,0.00,VWS V14.00,2013-01-17 17:31:00,
2013-01-17 09:36:00,45.1,32.5,29.99,NW,307,0.0,0.0,61,0.00,,---,0.00,VWS V14.00,2013-01-17 17:36:00,
2013-01-17 09:41:00,45.4,33.2,29.99,NW,307,0.0,0.0,62,0.00,,---,0.00,VWS V14.00,2013-01-17 17:41:00,
2013-01-17 09:46:00,46.1,33.4,29.99,NW,308,0.0,0.0,61,0.00,,---,0.00,VWS V14.00,2013-01-17 17:46:00,
2013-01-17 09:51:00,46.7,33.2,30.00,NW,308,0.0,0.0,59,0.00,,---,0.00,VWS V14.00,2013-01-17 17:51:00,
2013-01-17 09:56:00,46.7,33.2,30.00,NW,308,0.0,0.0,59,0.00,,---,0.00,VWS V14.00,2013-01-17 17:56:00,
2013-01-17 10:01:00,46.8,32.0,30.00,NW,308,0.0,1.0,56,0.00,,---,0.00,VWS V14.00,2013-01-17 18:01:00,
2013-01-17 10:06:00,46.8,32.4,29.99,NW,307,0.0,0.0,57,0.00,,---,0.00,VWS V14.00,2013-01-17 18:06:00,
2013-01-17 10:11:00,47.4,32.5,29.99,NW,307,0.0,0.0,56,0.00,,---,0.00,VWS V14.00,2013-01-17 18:11:00,
2013-01-17 10:16:00,48.0,32.2,29.99,NW,308,0.0,1.0,54,0.00,,---,0.00,VWS V14.00,2013-01-17 18:16:00,
2013-01-17 10:21:00,48.6,32.7,29.99,NW,308,0.0,0.0,54,0.00,,---,0.00,VWS V14.00,2013-01-17 18:21:00,
2013-01-17 10:26:00,49.4,33.0,29.99,NW,308,0.0,0.0,53,0.00,,---,0.00,VWS V14.00,2013-01-17 18:26:00,
2013-01-17 10:31:00,50.1,33.7,29.99,NW,308,0.0,0.0,53,0.00,,---,0.00,VWS V14.00,2013-01-17 18:31:00,
2013-01-17 10:36:00,50.1,33.2,29.99,NW,307,0.0,0.0,52,0.00,,---,0.00,VWS V14.00,2013-01-17 18:36:00,
2013-01-17 10:41:00,50.7,34.2,29.99,NW,308,0.0,1.0,53,0.00,,---,0.00,VWS V14.00,2013-01-17 18:41:00,
2013-01-17 10:46:00,51.1,33.6,29.99,NW,308,0.0,0.0,51,0.00,,---,0.00,VWS V14.00,2013-01-17 18:46:00,
2013-01-17 10:51:00,51.4,33.4,29.98,NW,308,0.0,0.0,50,0.00,,---,0.00,VWS V14.00,2013-01-17 18:51:00,
2013-01-17 10:56:00,51.7,33.7,29.98,NW,308,0.0,0.0,50,0.00,,---,0.00,VWS V14.00,2013-01-17 18:56:00,
2013-01-17 11:01:00,52.0,34.0,29.98,NW,308,0.0,1.0,50,0.00,,---,0.00,VWS V14.00,2013-01-17 19:01:00,
2013-01-17 11:06:00,52.3,33.7,29.98,NW,308,0.0,0.0,49,0.00,,---,0.00,VWS V14.00,2013-01-17 19:06:00,
2013-01-17 11:11:00,53.1,34.5,29.98,NW,308,0.0,0.0,49,0.00,,---,0.00,VWS V14.00,2013-01-17 19:11:00,
2013-01-17 11:16:00,53.6,33.9,29.98,NW,308,0.0,1.0,47,0.00,,---,0.00,VWS V14.00,2013-01-17 19:16:00,
2013-01-17 11:21:00,54.1,33.8,29.97,NW,308,0.0,1.0,46,0.00,,---,0.00,VWS V14.00,2013-01-17 19:21:00,
2013-01-17 11:26:00,54.4,33.5,29.97,NW,308,0.0,1.0,45,0.00,,---,0.00,VWS V14.00,2013-01-17 19:26:00,
2013-01-17 11:31:00,54.4,33.0,29.97,NW,307,0.0,1.0,44,0.00,,---,0.00,VWS V14.00,2013-01-17 19:31:00,
2013-01-17 11:36:00,54.5,33.0,29.96,NW,307,0.0,1.0,44,0.00,,---,0.00,VWS V14.00,2013-01-17 19:36:00,
2013-01-17 11:41:00,55.1,34.2,29.96,NW,307,0.0,0.0,45,0.00,,---,0.00,VWS V14.00,2013-01-17 19:41:00,
2013-01-17 11:46:00,55.4,32.7,29.96,NW,307,0.0,1.0,42,0.00,,---,0.00,VWS V14.00,2013-01-17 19:46:00,
2013-01-17 11:51:00,55.7,33.6,29.95,NW,308,1.0,1.0,43,0.00,,---,0.00,VWS V14.00,2013-01-17 19:51:00,
2013-01-17 11:56:00,56.2,32.8,29.95,NW,307,0.0,1.0,41,0.00,,---,0.00,VWS V14.00,2013-01-17 19:56:00,
2013-01-17 12:01:00,56.2,34.0,29.95,NW,305,0.0,2.0,43,0.00,,---,0.00,VWS V14.00,2013-01-17 20:01:00,
2013-01-17 12:06:00,55.7,33.6,29.94,NW,304,0.0,2.0,43,0.00,,---,0.00,VWS V14.00,2013-01-17 20:06:00,
2013-01-17 12:11:00,55.9,33.8,29.94,NW,306,0.0,2.0,43,0.00,,---,0.00,VWS V14.00,2013-01-17 20:11:00,
2013-01-17 12:16:00,56.5,32.5,29.94,NW,307,0.0,1.0,40,0.00,,---,0.00,VWS V14.00,2013-01-17 20:16:00,
2013-01-17 12:21:00,56.9,31.6,29.93,NW,306,0.0,2.0,38,0.00,,---,0.00,VWS V14.00,2013-01-17 20:21:00,
2013-01-17 12:26:00,57.2,31.8,29.93,NW,306,0.0,1.0,38,0.00,,---,0.00,VWS V14.00,2013-01-17 20:26:00,
2013-01-17 12:31:00,57.5,31.5,29.93,NW,306,1.0,1.0,37,0.00,,---,0.00,VWS V14.00,2013-01-17 20:31:00,
2013-01-17 12:36:00,57.5,33.4,29.92,NW,306,0.0,0.0,40,0.00,,---,0.00,VWS V14.00,2013-01-17 20:36:00,
2013-01-17 12:40:00,58.3,32.2,29.92,NW,306,0.0,1.0,37,0.00,,---,0.00,VWS V14.00,2013-01-17 20:40:00,
2013-01-17 12:46:00,58.4,32.2,29.92,West,266,3.0,5.0,37,0.00,,---,0.00,VWS V14.00,2013-01-17 20:46:00,
2013-01-17 12:51:00,58.3,31.5,29.92,West,266,0.0,1.0,36,0.00,,---,0.00,VWS V14.00,2013-01-17 20:51:00,
2013-01-17 12:56:00,58.4,33.6,29.92,West,267,0.0,4.0,39,0.00,,---,0.00,VWS V14.00,2013-01-17 20:56:00,
2013-01-17 13:01:00,58.6,31.8,29.92,West,268,0.0,5.0,36,0.00,,---,0.00,VWS V14.00,2013-01-17 21:01:00,
2013-01-17 13:06:00,58.9,31.3,29.91,West,268,0.0,2.0,35,0.00,,---,0.00,VWS V14.00,2013-01-17 21:06:00,
2013-01-17 13:10:00,58.9,33.4,29.91,WSW,257,1.0,4.0,38,0.00,,---,0.00,VWS V14.00,2013-01-17 21:10:00,
2013-01-17 13:15:00,59.2,32.3,29.91,WSW,254,0.0,2.0,36,0.00,,---,0.00,VWS V14.00,2013-01-17 21:15:00,
2013-01-17 13:20:00,59.5,32.5,29.90,WSW,254,0.0,2.0,36,0.00,,---,0.00,VWS V14.00,2013-01-17 21:20:00,
2013-01-17 13:25:00,59.8,32.1,29.90,West,266,0.0,4.0,35,0.00,,---,0.00,VWS V14.00,2013-01-17 21:25:00,
2013-01-17 13:30:00,59.8,32.1,29.90,West,266,0.0,4.0,35,0.00,,---,0.00,VWS V14.00,2013-01-17 21:30:00,
2013-01-17 13:35:00,60.1,32.4,29.90,WSW,252,7.0,7.0,35,0.00,,---,0.00,VWS V14.00,2013-01-17 21:35:00,
2013-01-17 13:40:00,59.9,32.9,29.90,WSW,245,0.0,1.0,36,0.00,,---,0.00,VWS V14.00,2013-01-17 21:40:00,
2013-01-17 13:45:00,60.2,32.5,29.90,WSW,243,0.0,1.0,35,0.00,,---,0.00,VWS V14.00,2013-01-17 21:45:00,
2013-01-17 13:50:00,60.7,32.2,29.89,WSW,243,0.0,1.0,34,0.00,,---,0.00,VWS V14.00,2013-01-17 21:50:00,
2013-01-17 13:55:00,61.3,32.7,29.89,WSW,246,5.0,6.0,34,0.00,,---,0.00,VWS V14.00,2013-01-17 21:55:00,
2013-01-17 14:00:00,61.0,32.5,29.89,WSW,240,0.0,3.0,34,0.00,,---,0.00,VWS V14.00,2013-01-17 22:00:00,
2013-01-17 14:05:00,61.3,32.7,29.88,WSW,240,0.0,4.0,34,0.00,,---,0.00,VWS V14.00,2013-01-17 22:05:00,
2013-01-17 14:10:00,61.6,31.5,29.88,WSW,240,0.0,1.0,32,0.00,,---,0.00,VWS V14.00,2013-01-17 22:10:00,
2013-01-17 14:15:00,61.8,31.6,29.88,NNW,331,0.0,0.0,32,0.00,,---,0.00,VWS V14.00,2013-01-17 22:15:00,
2013-01-17 14:20:00,62.3,32.1,29.88,NNW,331,0.0,1.0,32,0.00,,---,0.00,VWS V14.00,2013-01-17 22:20:00,
2013-01-17 14:25:00,62.7,31.6,29.88,NNW,331,0.0,0.0,31,0.00,,---,0.00,VWS V14.00,2013-01-17 22:25:00,
2013-01-17 14:30:00,62.9,31.8,29.88,NW,305,0.0,3.0,31,0.00,,---,0.00,VWS V14.00,2013-01-17 22:30:00,
2013-01-17 14:35:00,62.9,31.0,29.88,NW,307,0.0,4.0,30,0.00,,---,0.00,VWS V14.00,2013-01-17 22:35:00,
2013-01-17 14:40:00,62.4,29.8,29.88,NW,304,3.0,5.0,29,0.00,,---,0.00,VWS V14.00,2013-01-17 22:40:00,
2013-01-17 14:45:00,62.3,30.5,29.88,WNW,288,0.0,1.0,30,0.00,,---,0.00,VWS V14.00,2013-01-17 22:45:00,
2013-01-17 14:50:00,62.4,29.8,29.88,WNW,286,1.0,4.0,29,0.00,,---,0.00,VWS V14.00,2013-01-17 22:50:00,
2013-01-17 14:55:00,62.9,31.0,29.88,WNW,286,0.0,1.0,30,0.00,,---,0.00,VWS V14.00,2013-01-17 22:55:00,
2013-01-17 15:00:00,63.2,30.4,29.88,WNW,286,0.0,1.0,29,0.00,,---,0.00,VWS V14.00,2013-01-17 23:00:00,
2013-01-17 15:05:00,63.7,30.0,29.88,WNW,286,0.0,1.0,28,0.00,,---,0.00,VWS V14.00,2013-01-17 23:05:00,
2013-01-17 15:10:00,63.7,30.9,29.88,WNW,286,1.0,4.0,29,0.00,,---,0.00,VWS V14.00,2013-01-17 23:10:00,
2013-01-17 15:15:00,63.5,30.7,29.88,WNW,286,0.0,1.0,29,0.00,,---,0.00,VWS V14.00,2013-01-17 23:15:00,
2013-01-17 15:20:00,63.7,30.0,29.88,WNW,286,0.0,1.0,28,0.00,,---,0.00,VWS V14.00,2013-01-17 23:20:00,
2013-01-17 15:25:00,64.0,30.3,29.88,WNW,286,1.0,2.0,28,0.00,,---,0.00,VWS V14.00,2013-01-17 23:25:00,
2013-01-17 15:30:00,63.9,31.0,29.88,WNW,286,2.0,4.0,29,0.00,,---,0.00,VWS V14.00,2013-01-17 23:30:00,
2013-01-17 15:35:00,63.4,30.6,29.88,WNW,286,0.0,2.0,29,0.00,,---,0.00,VWS V14.00,2013-01-17 23:35:00,
2013-01-17 15:40:00,63.5,31.5,29.88,WNW,286,0.0,1.0,30,0.00,,---,0.00,VWS V14.00,2013-01-17 23:40:00,
2013-01-17 15:45:00,63.5,30.7,29.88,West,269,0.0,5.0,29,0.00,,---,0.00,VWS V14.00,2013-01-17 23:45:00,
2013-01-17 15:50:00,63.9,30.2,29.88,West,269,0.0,5.0,28,0.00,,---,0.00,VWS V14.00,2013-01-17 23:50:00,
2013-01-17 15:55:00,63.7,30.0,29.88,West,269,0.0,1.0,28,0.00,,---,0.00,VWS V14.00,2013-01-17 23:55:00,
2013-01-17 16:00:00,63.7,30.0,29.88,West,269,0.0,1.0,28,0.00,,---,0.00,VWS V14.00,2013-01-18 00:00:00,
2013-01-17 16:05:00,63.2,30.4,29.88,West,269,1.0,4.0,29,0.00,,---,0.00,VWS V14.00,2013-01-18 00:05:00,
2013-01-17 16:10:00,62.6,30.8,29.88,West,269,0.0,2.0,30,0.00,,---,0.00,VWS V14.00,2013-01-18 00:10:00,
2013-01-17 16:15:00,62.3,30.5,29.88,West,269,0.0,0.0,30,0.00,,---,0.00,VWS V14.00,2013-01-18 00:15:00,
2013-01-17 16:20:00,62.4,30.6,29.88,West,269,0.0,1.0,30,0.00,,---,0.00,VWS V14.00,2013-01-18 00:20:00,
2013-01-17 16:25:00,62.3,30.5,29.88,West,269,0.0,0.0,30,0.00,,---,0.00,VWS V14.00,2013-01-18 00:25:00,
2013-01-17 16:30:00,62.4,31.4,29.88,West,269,0.0,1.0,31,0.00,,---,0.00,VWS V14.00,2013-01-18 00:30:00,
2013-01-17 16:35:00,62.4,30.6,29.88,West,269,0.0,0.0,30,0.00,,---,0.00,VWS V14.00,2013-01-18 00:35:00,
2013-01-17 16:40:00,62.3,31.3,29.88,West,269,0.0,0.0,31,0.00,,---,0.00,VWS V14.00,2013-01-18 00:40:00,
2013-01-17 16:45:00,62.1,31.1,29.88,West,269,0.0,0.0,31,0.00,,---,0.00,VWS V14.00,2013-01-18 00:45:00,
2013-01-17 16:50:00,61.8,30.9,29.88,West,269,0.0,0.0,31,0.00,,---,0.00,VWS V14.00,2013-01-18 00:50:00,
2013-01-17 16:55:00,61.2,32.6,29.88,West,269,0.0,0.0,34,0.00,,---,0.00,VWS V14.00,2013-01-18 00:55:00,
2013-01-17 17:00:00,60.4,32.7,29.88,West,269,0.0,0.0,35,0.00,,---,0.00,VWS V14.00,2013-01-18 01:00:00,
2013-01-17 17:05:00,58.9,32.7,29.88,West,269,0.0,0.0,37,0.00,,---,0.00,VWS V14.00,2013-01-18 01:05:00,
2013-01-17 17:10:00,57.3,32.6,29.88,West,269,0.0,0.0,39,0.00,,---,0.00,VWS V14.00,2013-01-18 01:10:00,
2013-01-17 17:15:00,56.2,32.8,29.88,West,269,0.0,0.0,41,0.00,,---,0.00,VWS V14.00,2013-01-18 01:15:00,
2013-01-17 17:20:00,55.1,33.6,29.88,West,269,0.0,0.0,44,0.00,,---,0.00,VWS V14.00,2013-01-18 01:20:00,
2013-01-17 17:25:00,54.2,33.3,29.88,West,269,0.0,0.0,45,0.00,,---,0.00,VWS V14.00,2013-01-18 01:25:00,
2013-01-17 17:30:00,53.2,34.0,29.88,West,269,0.0,0.0,48,0.00,,---,0.00,VWS V14.00,2013-01-18 01:30:00,
2013-01-17 17:35:00,52.3,33.7,29.89,West,269,0.0,0.0,49,0.00,,---,0.00,VWS V14.00,2013-01-18 01:35:00,
2013-01-17 17:40:00,51.7,33.7,29.89,West,269,0.0,0.0,50,0.00,,---,0.00,VWS V14.00,2013-01-18 01:40:00,
2013-01-17 17:45:00,51.3,33.8,29.89,West,269,0.0,0.0,51,0.00,,---,0.00,VWS V14.00,2013-01-18 01:45:00,
2013-01-17 17:50:00,50.7,33.7,29.89,West,269,0.0,0.0,52,0.00,,---,0.00,VWS V14.00,2013-01-18 01:50:00,
2013-01-17 17:55:00,50.2,33.3,29.89,West,269,0.0,0.0,52,0.00,,---,0.00,VWS V14.00,2013-01-18 01:55:00,
2013-01-17 18:00:00,49.8,33.4,29.89,West,269,0.0,0.0,53,0.00,,---,0.00,VWS V14.00,2013-01-18 02:00:00,
2013-01-17 18:05:00,49.4,33.0,29.90,West,269,0.0,0.0,53,0.00,,---,0.00,VWS V14.00,2013-01-18 02:05:00,
2013-01-17 18:10:00,49.1,33.2,29.90,West,269,0.0,0.0,54,0.00,,---,0.00,VWS V14.00,2013-01-18 02:10:00,
2013-01-17 18:15:00,48.6,33.2,29.90,West,269,0.0,0.0,55,0.00,,---,0.00,VWS V14.00,2013-01-18 02:15:00,
2013-01-17 18:20:00,48.3,33.3,29.90,West,269,0.0,0.0,56,0.00,,---,0.00,VWS V14.00,2013-01-18 02:20:00,
2013-01-17 18:25:00,47.7,33.2,29.90,West,269,0.0,0.0,57,0.00,,---,0.00,VWS V14.00,2013-01-18 02:25:00,
2013-01-17 18:30:00,47.3,33.7,29.90,West,269,0.0,0.0,59,0.00,,---,0.00,VWS V14.00,2013-01-18 02:30:00,
2013-01-17 18:35:00,46.7,33.6,29.90,West,269,0.0,0.0,60,0.00,,---,0.00,VWS V14.00,2013-01-18 02:35:00,
2013-01-17 18:40:00,46.2,33.5,29.90,West,269,0.0,0.0,61,0.00,,---,0.00,VWS V14.00,2013-01-18 02:40:00,
2013-01-17 18:45:00,45.8,33.5,29.90,West,269,0.0,0.0,62,0.00,,---,0.00,VWS V14.00,2013-01-18 02:45:00,
2013-01-17 18:50:00,45.4,33.2,29.90,West,269,0.0,0.0,62,0.00,,---,0.00,VWS V14.00,2013-01-18 02:50:00,
2013-01-17 18:55:00,45.2,33.4,29.90,West,269,0.0,0.0,63,0.00,,---,0.00,VWS V14.00,2013-01-18 02:55:00,
2013-01-17 19:00:00,44.8,33.0,29.90,West,269,0.0,0.0,63,0.00,,---,0.00,VWS V14.00,2013-01-18 03:00:00,
2013-01-17 19:05:00,44.5,33.1,29.90,West,269,0.0,0.0,64,0.00,,---,0.00,VWS V14.00,2013-01-18 03:05:00,
2013-01-17 19:10:00,44.2,32.8,29.90,West,269,0.0,0.0,64,0.00,,---,0.00,VWS V14.00,2013-01-18 03:10:00,
2013-01-17 19:15:00,43.9,32.9,29.90,West,269,0.0,0.0,65,0.00,,---,0.00,VWS V14.00,2013-01-18 03:15:00,
2013-01-17 19:20:00,43.5,32.5,29.90,West,269,0.0,0.0,65,0.00,,---,0.00,VWS V14.00,2013-01-18 03:20:00,
2013-01-17 19:25:00,43.2,32.6,29.90,West,269,0.0,0.0,66,0.00,,---,0.00,VWS V14.00,2013-01-18 03:25:00,
2013-01-17 19:30:00,42.9,32.7,29.90,West,269,0.0,0.0,67,0.00,,---,0.00,VWS V14.00,2013-01-18 03:30:00,
2013-01-17 19:35:00,42.6,32.4,29.90,West,269,0.0,0.0,67,0.00,,---,0.00,VWS V14.00,2013-01-18 03:35:00,
2013-01-17 19:40:00,42.3,32.1,29.90,West,269,0.0,0.0,67,0.00,,---,0.00,VWS V14.00,2013-01-18 03:40:00,
2013-01-17 19:45:00,42.2,32.4,29.90,West,269,0.0,0.0,68,0.00,,---,0.00,VWS V14.00,2013-01-18 03:45:00,
2013-01-17 19:50:00,41.9,32.5,29.90,West,269,0.0,0.0,69,0.00,,---,0.00,VWS V14.00,2013-01-18 03:50:00,
2013-01-17 19:55:00,41.6,32.2,29.90,West,269,0.0,0.0,69,0.00,,---,0.00,VWS V14.00,2013-01-18 03:55:00,
2013-01-17 20:00:00,41.3,32.3,29.90,West,269,0.0,0.0,70,0.00,,---,0.00,VWS V14.00,2013-01-18 04:00:00,
2013-01-17 20:05:00,41.1,32.1,29.90,West,269,0.0,0.0,70,0.00,,---,0.00,VWS V14.00,2013-01-18 04:05:00,
2013-01-17 20:10:00,40.8,31.8,29.90,West,269,0.0,0.0,70,0.00,,---,0.00,VWS V14.00,2013-01-18 04:10:00,
2013-01-17 20:15:00,40.5,31.9,29.90,West,269,0.0,0.0,71,0.00,,---,0.00,VWS V14.00,2013-01-18 04:15:00,
2013-01-17 20:20:00,40.3,31.7,29.90,West,269,0.0,0.0,71,0.00,,---,0.00,VWS V14.00,2013-01-18 04:20:00,
2013-01-17 20:25:00,40.2,31.9,29.90,West,269,0.0,0.0,72,0.00,,---,0.00,VWS V14.00,2013-01-18 04:25:00,
2013-01-17 20:30:00,40.1,31.8,29.90,West,269,0.0,0.0,72,0.00,,---,0.00,VWS V14.00,2013-01-18 04:30:00,
2013-01-17 20:35:00,39.8,31.9,29.90,West,269,0.0,0.0,73,0.00,,---,0.00,VWS V14.00,2013-01-18 04:35:00,
2013-01-17 20:40:00,39.6,31.7,29.90,West,269,0.0,0.0,73,0.00,,---,0.00,VWS V14.00,2013-01-18 04:40:00,
2013-01-17 20:45:00,39.5,31.9,29.90,West,269,0.0,0.0,74,0.00,,---,0.00,VWS V14.00,2013-01-18 04:45:00,
2013-01-17 20:49:00,39.2,31.6,29.90,West,269,0.0,0.0,74,0.00,,---,0.00,VWS V14.00,2013-01-18 04:49:00,
2013-01-17 20:54:00,38.9,31.3,29.90,West,269,0.0,0.0,74,0.00,,---,0.00,VWS V14.00,2013-01-18 04:54:00,
2013-01-17 20:59:00,38.8,31.2,29.90,West,269,0.0,0.0,74,0.00,,---,0.00,VWS V14.00,2013-01-18 04:59:00,
2013-01-17 21:00:00,38.8,31.2,29.90,West,269,0.0,0.0,74,0.00,,---,0.00,VWS V14.00,2013-01-18 05:00:00,
2013-01-17 21:01:00,38.8,31.2,29.90,West,269,0.0,0.0,74,0.00,,---,0.00,VWS V14.00,2013-01-18 05:01:00,
2013-01-17 21:06:00,38.6,31.4,29.90,West,269,0.0,0.0,75,0.00,,---,0.00,VWS V14.00,2013-01-18 05:06:00,
2013-01-17 21:11:00,38.3,31.4,29.90,West,269,0.0,0.0,76,0.00,,---,0.00,VWS V14.00,2013-01-18 05:11:00,
2013-01-17 21:16:00,38.2,31.3,29.90,West,269,0.0,0.0,76,0.00,,---,0.00,VWS V14.00,2013-01-18 05:16:00,
2013-01-17 21:21:00,38.0,31.4,29.90,West,269,0.0,0.0,77,0.00,,---,0.00,VWS V14.00,2013-01-18 05:21:00,
2013-01-17 21:26:00,37.9,31.4,29.90,West,269,0.0,0.0,77,0.00,,---,0.00,VWS V14.00,2013-01-18 05:26:00,
2013-01-17 21:31:00,37.8,31.2,29.90,West,269,0.0,0.0,77,0.00,,---,0.00,VWS V14.00,2013-01-18 05:31:00,
2013-01-17 21:36:00,37.6,31.1,29.90,West,269,0.0,0.0,77,0.00,,---,0.00,VWS V14.00,2013-01-18 05:36:00,
2013-01-17 21:41:00,37.5,31.3,29.90,West,269,0.0,0.0,78,0.00,,---,0.00,VWS V14.00,2013-01-18 05:41:00,
2013-01-17 21:46:00,37.3,30.8,29.90,West,269,0.0,0.0,77,0.00,,---,0.00,VWS V14.00,2013-01-18 05:46:00,
2013-01-17 21:51:00,37.2,30.7,29.90,West,269,0.0,0.0,77,0.00,,---,0.00,VWS V14.00,2013-01-18 05:51:00,
2013-01-17 21:56:00,37.2,31.0,29.90,West,269,0.0,0.0,78,0.00,,---,0.00,VWS V14.00,2013-01-18 05:56:00,
2013-01-17 22:01:00,37.0,30.8,29.90,West,269,0.0,0.0,78,0.00,,---,0.00,VWS V14.00,2013-01-18 06:01:00,
2013-01-17 22:06:00,36.9,31.0,29.90,West,269,0.0,0.0,79,0.00,,---,0.00,VWS V14.00,2013-01-18 06:06:00,
2013-01-17 22:11:00,36.8,30.9,29.90,West,269,0.0,0.0,79,0.00,,---,0.00,VWS V14.00,2013-01-18 06:11:00,
2013-01-17 22:16:00,36.8,30.9,29.90,West,269,0.0,0.0,79,0.00,,---,0.00,VWS V14.00,2013-01-18 06:16:00,
2013-01-17 22:21:00,36.6,30.7,29.90,West,269,0.0,0.0,79,0.00,,---,0.00,VWS V14.00,2013-01-18 06:21:00,
2013-01-17 22:26:00,36.6,30.7,29.90,West,269,0.0,0.0,79,0.00,,---,0.00,VWS V14.00,2013-01-18 06:26:00,
2013-01-17 22:31:00,36.5,30.6,29.90,West,269,0.0,0.0,79,0.00,,---,0.00,VWS V14.00,2013-01-18 06:31:00,
2013-01-17 22:36:00,36.5,30.6,29.90,West,269,0.0,0.0,79,0.00,,---,0.00,VWS V14.00,2013-01-18 06:36:00,
2013-01-17 22:41:00,36.3,30.7,29.90,West,269,0.0,0.0,80,0.00,,---,0.00,VWS V14.00,2013-01-18 06:41:00,
2013-01-17 22:46:00,36.3,30.7,29.90,West,269,0.0,0.0,80,0.00,,---,0.00,VWS V14.00,2013-01-18 06:46:00,
2013-01-17 22:51:00,36.5,30.9,29.90,West,269,0.0,0.0,80,0.00,,---,0.00,VWS V14.00,2013-01-18 06:51:00,
2013-01-17 22:56:00,36.6,31.0,29.90,West,269,0.0,0.0,80,0.00,,---,0.00,VWS V14.00,2013-01-18 06:56:00,
2013-01-17 23:01:00,36.5,30.9,29.90,West,269,0.0,0.0,80,0.00,,---,0.00,VWS V14.00,2013-01-18 07:01:00,
2013-01-17 23:06:00,36.3,30.4,29.90,West,269,0.0,0.0,79,0.00,,---,0.00,VWS V14.00,2013-01-18 07:06:00,
2013-01-17 23:11:00,36.5,30.9,29.90,West,269,0.0,0.0,80,0.00,,---,0.00,VWS V14.00,2013-01-18 07:11:00,
2013-01-17 23:16:00,36.6,31.0,29.90,West,269,0.0,0.0,80,0.00,,---,0.00,VWS V14.00,2013-01-18 07:16:00,
2013-01-17 23:21:00,36.9,31.3,29.90,West,269,0.0,1.0,80,0.00,,---,0.00,VWS V14.00,2013-01-18 07:21:00,
2013-01-17 23:26:00,37.2,31.3,29.90,West,269,0.0,0.0,79,0.00,,---,0.00,VWS V14.00,2013-01-18 07:26:00,
2013-01-17 23:31:00,37.2,31.3,29.90,West,269,0.0,0.0,79,0.00,,---,0.00,VWS V14.00,2013-01-18 07:31:00,
2013-01-17 23:36:00,37.0,31.1,29.90,West,269,0.0,0.0,79,0.00,,---,0.00,VWS V14.00,2013-01-18 07:36:00,
2013-01-17 23:41:00,36.9,31.0,29.90,West,269,0.0,0.0,79,0.00,,---,0.00,VWS V14.00,2013-01-18 07:41:00,
2013-01-17 23:46:00,36.8,30.9,29.90,West,269,0.0,0.0,79,0.00,,---,0.00,VWS V14.00,2013-01-18 07:46:00,
2013-01-17 23:51:00,36.6,30.7,29.90,West,269,0.0,0.0,79,0.00,,---,0.00,VWS V14.00,2013-01-18 07:51:00,
2013-01-17 23:56:00,36.6,31.0,29.90,West,269,0.0,0.0,80,0.00,,---,0.00,VWS V14.00,2013-01-18 07:56:00,